[[{"header":{"parameterUnit":"m.s-1","parameterCategory":1,"la1":30.2991,"la2":30.254,"lo1":-89.0895,"lo2":-89.0444,"dy":0.0017,"dx":0.0017,"nx":28,"ny":28,"refTime":"2024-09-30T09:00:00:Z","depth":0,"parameterNumber":2,"parameterNumberName":"U-component_of_WINDS"},"data":[0,0,0,0,0,0,0,0,0,0,0,0,0,0,0,0,0,0,0,0,0,0,0,0,0,0,0,0,0,0,0,0,0,0,0,0,0,0,0,0,0,0,0,0,0,0,0,0,0,0,0,0,0,0,0,0,0,0,0.5329,0.533,0,0.5416,0.5417,0.5418,0.5441,0.544,0.544,0.5439,0.553,0.5532,0.5535,0,0,0,0,0,0,0,0,0,0,0,0,0,0.5185,0.5188,0.5329,0.533,0.5331,0.5416,0.5417,0.5418,0.5441,0.544,0.544,0.5439,0.5529,0.5532,0.5536,0,0,0,0,0,0,0,0,0,0,0,0,0,0.5257,0.5188,0.5329,0.5353,0.5356,0.5415,0.5417,0.5418,0.5441,0.544,0.5439,0.5439,0.5528,0.5532,0.5536,0.5579,0,0,0.5549,0.5551,0,0,0,0,0,0,0,0,0.5253,0.5263,0.5348,0.5351,0.5355,0.5417,0.5399,0.5472,0.5441,0.5409,0.5439,0.5438,0.5493,0.55,0.5518,0.5583,0.5587,0.555,0.5552,0.5554,0.5555,0,0,0,0,0,0,0,0.5248,0.5259,0.5364,0.535,0.5354,0.536,0.5369,0.5413,0.5454,0.5411,0.5413,0.5423,0.5494,0.5514,0.552,0.5588,0.555,0.5553,0.5556,0.5558,0.5691,0.5692,0,0,0,0,0,0,0.5239,0.5255,0.5361,0.5366,0.5301,0.5363,0.5373,0.5398,0.5454,0.5461,0.5424,0.5424,0.5507,0.5515,0.5523,0.5576,0.5554,0.5558,0.5561,0.569,0.5692,0.5693,0,0,0,0,0,0,0.5236,0.5248,0.5357,0.5311,0.5325,0.5366,0.5393,0.54,0.5419,0.5463,0.5471,0.5436,0.5506,0.5517,0.5564,0.558,0.556,0.5564,0.5689,0.5691,0.5692,0.5682,0,0,0,0,0,0,0.5231,0.5247,0.5263,0.5311,0.5328,0.5396,0.5394,0.5402,0.5426,0.5427,0.5476,0.5484,0.5507,0.5558,0.5569,0.5585,0.5568,0.5688,0.569,0.5692,0.5681,0.5683,0.5685,0,0,0,0,0,0.5226,0.5257,0.5264,0.5276,0.5349,0.5397,0.5407,0.5432,0.5427,0.5444,0.5472,0.5482,0.5576,0.5562,0.5575,0.5593,0.5687,0.5689,0.5691,0.5681,0.5683,0.5685,0,0,0,0,0,0,0.5211,0.5264,0.5272,0.532,0.5353,0.5401,0.5423,0.5433,0.547,0.5469,0.55,0.5511,0.5555,0.5579,0.5563,0.5637,0.5632,0.5637,0.562,0.5622,0.5624,0.5617,0.5571,0,0,0,0,0,0.5213,0.5247,0.5292,0.533,0.5347,0.5382,0.5404,0.542,0.5457,0.5472,0.5503,0.5539,0.5576,0.5601,0.5638,0.5685,0.5696,0.5704,0.5705,0.5707,0.571,0.5736,0.574,0.5699,0.5699,0.5699,0,0,0.5218,0.5251,0.5271,0.5328,0.5356,0.5391,0.5394,0.5431,0.5457,0.5477,0.5523,0.5548,0.559,0.5637,0.5659,0.5658,0.5724,0.5709,0.571,0.5713,0.5739,0.5743,0.5746,0.5701,0.5701,0.57,0,0,0.5244,0.5273,0.5307,0.5335,0.5378,0.5401,0.5409,0.5455,0.5472,0.5518,0.5534,0.5566,0.563,0.5659,0.5682,0.5719,0.5729,0.573,0.5739,0.5764,0.5767,0.577,0.5783,0.5787,0.5734,0.5734,0.5734,0,0.5245,0.5298,0.5324,0.536,0.5384,0.5403,0.5438,0.5464,0.5517,0.5534,0.5531,0.5612,0.5641,0.5695,0.5704,0.5722,0.5732,0.5725,0.5764,0.5768,0.5771,0.5783,0.5788,0.5734,0.5734,0.5734,0.5734,0,0.5296,0.5333,0.5356,0.5405,0.5432,0.5467,0.5499,0.5523,0.5537,0.556,0.5607,0.5643,0.5687,0.5702,0.5716,0.5757,0.5755,0.5758,0.5754,0.5774,0.5786,0.5791,0.5733,0.5733,0.5733,0.5733,0,0,0.5316,0.5378,0.5386,0.5408,0.5457,0.5485,0.5522,0.5564,0.5584,0.562,0.5651,0.5705,0.5708,0.5734,0.5752,0.5774,0.58,0.5774,0.5776,0.5777,0.5847,0.5843,0.5848,0.5807,0.5808,0.5809,0.5843,0,0.5347,0.5412,0.5436,0.5489,0.5523,0.5542,0.5573,0.5606,0.5629,0.5661,0.5687,0.5724,0.5725,0.5741,0.5764,0.5792,0.5814,0.579,0.5836,0.5837,0.5824,0.5855,0.5852,0.5882,0.5848,0.5849,0.5849,0,0.5393,0.5428,0.5484,0.5528,0.5543,0.5571,0.5611,0.5642,0.568,0.5695,0.5724,0.574,0.5779,0.5772,0.5826,0.5809,0.5829,0.5846,0.5848,0.5852,0.5844,0.586,0.5893,0.5897,0.5857,0.5857,0.5856,0,0.54,0.5462,0.5503,0.5522,0.5574,0.5593,0.5615,0.5652,0.5676,0.5712,0.5728,0.5768,0.579,0.5821,0.5848,0.584,0.5899,0.5894,0.5912,0.5911,0.5923,0.5922,0.5959,0.5937,0.5937,0.5937,0.5937,0,0.5433,0.5467,0.5507,0.5533,0.5571,0.5598,0.5635,0.5659,0.5692,0.5722,0.5741,0.5769,0.5803,0.5836,0.5857,0.5898,0.5908,0.5921,0.5927,0.5919,0.5918,0.5933,0.5931,0.5938,0.5938,0.5938,0.5938,0,0.5447,0.5476,0.5522,0.5567,0.5579,0.5605,0.5644,0.5669,0.5693,0.5731,0.5742,0.5779,0.5818,0.5848,0.5899,0.5914,0.5957,0.5963,0.5944,0.5946,0.5962,0.596,0.601,0.6017,0.5991,0.5991,0.5991,0,0.5466,0.5492,0.554,0.5561,0.5583,0.5618,0.5642,0.567,0.5695,0.5739,0.5759,0.58,0.5834,0.5896,0.5928,0.5967,0.5974,0.5988,0.598,0.5971,0.5973,0.5971,0.5973,0.5989,0.5989,0.599,0.599,0,0.5496,0.5508,0.5542,0.5581,0.5609,0.5641,0.5674,0.569,0.5725,0.5751,0.5791,0.5818,0.587,0.591,0.5952,0.5976,0.5988,0.5992,0.5998,0.5991,0.5978,0.5985,0.5946,0.5991,0.5991,0.5991,0.5991,0.5991,0.5512,0.5536,0.5573,0.561,0.5637,0.5667,0.5693,0.5719,0.5753,0.5797,0.5812,0.5853,0.589,0.5948,0.5972,0.6005,0.6005,0.6014,0.6017,0.6018,0.6017,0.5973,0.6013,0.6013,0.6013,0.6013,0.6013,0,0.5542,0.5567,0.5601,0.5645,0.5674,0.5683,0.5719,0.5743,0.5779,0.5812,0.5845,0.5891,0.593,0.5964,0.6004,0.6024,0.6031,0.6034,0.6032,0.6038,0.6015,0.6005,0.6028,0.6028,0.6028,0.6028,0.6028,0.6027,0.5561,0.5601,0.5619,0.5673,0.5697,0.5737,0.5757,0.5785,0.5811,0.5861,0.5893,0.5915,0.5949,0.5992,0.6028,0.6037,0.6051,0.6052,0.6063,0.6041,0.6039,0.6037,0.6028,0.6055,0.6055,0.6083,0.6083,0.6083]},{"header":{"parameterUnit":"m.s-1","parameterCategory":1,"la1":30.2991,"la2":30.254,"lo1":-89.0895,"lo2":-89.0444,"dy":0.0017,"dx":0.0017,"nx":28,"ny":28,"refTime":"2024-09-30T09:00:00:Z","depth":0,"parameterNumber":3,"parameterNumberName":"V-component_of_WINDS"},"data":[0,0,0,0,0,0,0,0,0,0,0,0,0,0,0,0,0,0,0,0,0,0,0,0,0,0,0,0,0,0,0,0,0,0,0,0,0,0,0,0,0,0,0,0,0,0,0,0,0,0,0,0,0,0,0,0,0,0,2.7862,2.7862,0,2.7812,2.7812,2.7811,2.7772,2.7772,2.7771,2.7771,2.7715,2.7714,2.7713,0,0,0,0,0,0,0,0,0,0,0,0,0,2.7921,2.792,2.7863,2.7862,2.7861,2.7812,2.7812,2.7811,2.7772,2.7772,2.7771,2.7771,2.7715,2.7714,2.7713,0,0,0,0,0,0,0,0,0,0,0,0,0,2.7886,2.792,2.7863,2.7836,2.7833,2.7813,2.7812,2.7811,2.7772,2.7772,2.7771,2.7771,2.7716,2.7714,2.7713,2.7713,0,0,2.7707,2.7706,0,0,0,0,0,0,0,0,2.7888,2.7884,2.7841,2.7838,2.7835,2.7798,2.7812,2.7778,2.7772,2.7795,2.7771,2.777,2.7743,2.7739,2.773,2.771,2.7708,2.7707,2.7706,2.7705,2.7705,0,0,0,0,0,0,0,2.789,2.7885,2.7842,2.784,2.7836,2.7826,2.782,2.7805,2.7772,2.7793,2.779,2.7785,2.7741,2.7732,2.7729,2.7707,2.7707,2.7706,2.7704,2.7704,2.7684,2.7684,0,0,0,0,0,0,2.7897,2.7888,2.7844,2.7841,2.7861,2.7825,2.7819,2.781,2.7773,2.7766,2.7786,2.7784,2.7735,2.7731,2.7727,2.7724,2.7705,2.7704,2.7703,2.7683,2.7684,2.7684,0,0,0,0,0,0,2.7899,2.7894,2.7846,2.7864,2.7857,2.7825,2.7815,2.781,2.7801,2.7767,2.7761,2.7783,2.7735,2.7729,2.7717,2.7721,2.7703,2.7701,2.7682,2.7683,2.7684,2.7719,0,0,0,0,0,0,2.7901,2.7895,2.7895,2.7864,2.7856,2.7838,2.7816,2.7809,2.7798,2.7795,2.7763,2.7757,2.7734,2.772,2.7715,2.7719,2.77,2.7682,2.7683,2.7684,2.7717,2.7721,2.7724,0,0,0,0,0,2.7903,2.7906,2.7895,2.789,2.7856,2.7839,2.7834,2.7809,2.7799,2.7799,2.7777,2.7758,2.7722,2.7719,2.7713,2.7716,2.7681,2.7682,2.7684,2.7716,2.772,2.7724,0,0,0,0,0,0,2.7937,2.7901,2.7889,2.7883,2.7864,2.7832,2.7831,2.7814,2.7797,2.7794,2.7763,2.7756,2.7747,2.773,2.7727,2.7714,2.7699,2.7699,2.7725,2.7729,2.7733,2.7736,2.7698,0,0,0,0,0,2.7944,2.7934,2.7903,2.79,2.7892,2.7863,2.7854,2.7837,2.7816,2.7807,2.7785,2.7764,2.7748,2.7738,2.7721,2.7715,2.7707,2.7715,2.7718,2.7721,2.7721,2.7716,2.7719,2.7688,2.7688,2.7688,0,0,2.7957,2.7937,2.7932,2.7906,2.789,2.7879,2.7856,2.7846,2.7837,2.7805,2.7792,2.7775,2.775,2.774,2.7735,2.7726,2.7728,2.7722,2.7725,2.7723,2.7717,2.772,2.7723,2.7689,2.7688,2.7688,0,0,2.7977,2.7961,2.7957,2.7941,2.7917,2.7898,2.7898,2.7868,2.7856,2.7843,2.7819,2.7808,2.7781,2.7764,2.7752,2.7766,2.7747,2.7761,2.7778,2.7774,2.7776,2.7778,2.7782,2.7785,2.7762,2.7762,2.7762,0,2.7996,2.798,2.7956,2.7947,2.7936,2.7909,2.7904,2.7889,2.7861,2.7853,2.7845,2.7811,2.7792,2.7778,2.7782,2.7773,2.777,2.7764,2.7778,2.778,2.7781,2.7785,2.7787,2.7764,2.7763,2.7763,2.7763,0,2.8005,2.7994,2.7994,2.7969,2.7958,2.7951,2.7924,2.7916,2.79,2.7882,2.7869,2.7845,2.7823,2.7819,2.7802,2.7803,2.7798,2.7784,2.7768,2.7787,2.7789,2.7791,2.7766,2.7766,2.7765,2.7765,0,0,2.8043,2.8006,2.8006,2.7994,2.7966,2.7957,2.7949,2.7929,2.7922,2.7903,2.7895,2.7874,2.7861,2.7847,2.7829,2.7825,2.7837,2.7811,2.781,2.7816,2.7835,2.7845,2.7847,2.7825,2.7825,2.7825,2.7837,0,2.8057,2.8042,2.802,2.8012,2.8001,2.7976,2.7968,2.795,2.7933,2.792,2.7901,2.7886,2.7871,2.7863,2.7858,2.7837,2.784,2.7836,2.7815,2.7815,2.7821,2.7849,2.7859,2.7871,2.7838,2.7838,2.7838,0,2.8071,2.8055,2.8046,2.802,2.8015,2.8009,2.7989,2.7978,2.7957,2.7944,2.793,2.7911,2.7899,2.7886,2.7869,2.7867,2.7857,2.7846,2.7845,2.7841,2.7827,2.7844,2.7874,2.7875,2.784,2.784,2.784,0,2.8098,2.8075,2.8067,2.8058,2.8027,2.8023,2.801,2.7988,2.7978,2.7961,2.7953,2.7934,2.7924,2.7909,2.7884,2.7877,2.787,2.7855,2.7859,2.7859,2.7857,2.7857,2.7884,2.7853,2.7853,2.7853,2.7853,0,2.8115,2.811,2.8079,2.8073,2.8067,2.8042,2.8036,2.8021,2.8002,2.7992,2.7969,2.796,2.7929,2.7916,2.7896,2.7885,2.7881,2.787,2.7864,2.7871,2.7872,2.7863,2.7861,2.7853,2.7853,2.7853,2.7853,0,2.8144,2.8123,2.8112,2.8084,2.8077,2.8074,2.805,2.8043,2.8026,2.8014,2.8009,2.7981,2.7965,2.794,2.7915,2.7903,2.7894,2.7886,2.7902,2.7899,2.7903,2.7903,2.7925,2.7926,2.7895,2.7896,2.7896,0,2.8156,2.8152,2.8124,2.8117,2.8105,2.8094,2.8084,2.8059,2.805,2.8025,2.8021,2.8004,2.7988,2.7963,2.794,2.7921,2.7912,2.7921,2.7909,2.7916,2.7911,2.7911,2.791,2.7923,2.7924,2.7924,2.7924,0,2.8178,2.8169,2.8156,2.814,2.8129,2.8115,2.8099,2.8094,2.8066,2.8056,2.804,2.8028,2.8005,2.7987,2.7965,2.795,2.7932,2.7929,2.7928,2.7935,2.7944,2.7938,2.7909,2.7928,2.7927,2.7927,2.7927,2.7927,2.8198,2.8194,2.8174,2.8161,2.8147,2.8133,2.8126,2.8108,2.8095,2.8075,2.8061,2.8046,2.8025,2.7994,2.798,2.7967,2.7959,2.7959,2.7958,2.7958,2.7961,2.7947,2.7963,2.7963,2.7963,2.7962,2.7962,0,2.8219,2.8206,2.8194,2.8174,2.8163,2.815,2.8132,2.8123,2.8111,2.8093,2.8079,2.8061,2.8044,2.802,2.8001,2.7995,2.7987,2.7991,2.799,2.7987,2.7969,2.7971,2.7999,2.7999,2.7998,2.7998,2.7998,2.7998,2.8229,2.822,2.8208,2.8192,2.8178,2.8165,2.8156,2.8143,2.8129,2.811,2.8096,2.8082,2.8061,2.8041,2.8024,2.8018,2.8011,2.8018,2.8009,2.7992,2.7988,2.7985,2.7987,2.8017,2.8017,2.8028,2.8028,2.8028]}]]